Location: Springville
(37.3745°N, 89.2676°W)
Time: 14:29:35
(UTC+00:00)

Cosmos 1300 - Pass Details

Date: 29 October 2020
Orbit: 511 x 514 km, 82.5° (Epoch: 04 December)

Event Time Altitude Azimuth Distance (km) Brightness Sun altitude
Rises 23:21:44 0° 186° (S) 2,612 6.6 -4.7°
Reaches altitude 10° 23:23:51 10° 187° (S) 1,731 5.7 -5.1°
Maximum altitude 23:27:39 87° 271° (W) 520 2.7 -5.8°
Drops below altitude 10° 23:31:29 10° 6° (N) 1,746 5.2 -6.6°
Sets 23:33:37 0° 7° (N) 2,637 6.1 -7.0°
